Location: Brabourne
(51.1333°N, 1.0000°E)
Time: 11:48:36
(UTC+00:00)

ADEOS Rocket - Pass Details

Date: 30 October 2021
Orbit: 858 x 1307 km, 98.8° (Epoch: 26 November)

Event Time Altitude Azimuth Distance (km) Brightness Sun altitude
Exits shadow 00:23:56 13° 354° (N) 2,786 5.7 -51.6°
Drops below altitude 10° 00:24:36 10° 353° (N) 3,013 5.9 -51.6°
Sets 00:27:07 0° 348° (NNW) 3,913 6.6 -51.4°
